Location: Lawrence Hall of Science
(37.8785°N, 122.2415°W)
Time: 01:53:15
(UTC-07:00)

ARGOS - Visible Passes

Search period start: 22 April 2018 00:00
Search period end: 02 May 2018 00:00
Orbit: 820 x 835 km, 98.6° (Epoch: 21 April)

Date Brightness Start Highest point End Pass type
(mag) Time Alt. Az. Time Alt. Az. Time Alt. Az.
22 Apr 4.1 21:10:53 22° ESE 21:13:03 30° ENE 21:17:39 10° N visible
22 Apr 4.4 22:52:24 30° WSW 22:53:11 32° W 22:57:57 10° NW visible
23 Apr 4.6 20:52:00 15° E 20:54:39 21° ENE 20:58:33 10° NNE visible
23 Apr 3.8 22:33:30 42° SW 22:34:31 47° W 22:39:42 10° NNW visible
24 Apr 5.0 20:33:35 10° E 20:36:20 14° ENE 20:39:04 10° NNE visible
24 Apr 3.2 22:14:36 51° SSW 22:15:54 72° WSW 22:21:17 10° NNW visible
25 Apr 3.0 21:55:43 46° SSE 21:57:20 77° ENE 22:02:43 10° N visible
25 Apr 5.6 23:37:13 11° W 23:38:08 11° W 23:39:51 10° WNW visible
26 Apr 3.4 21:36:49 34° SE 21:38:49 52° ENE 21:44:01 10° N visible
26 Apr 5.2 23:18:19 17° WSW 23:19:20 18° W 23:22:56 10° NW visible
27 Apr 3.9 21:17:55 23° ESE 21:20:21 35° ENE 21:25:11 10° N visible
27 Apr 4.7 22:59:26 25° WSW 23:00:36 27° W 23:05:06 10° NW visible
28 Apr 4.4 20:59:02 16° ESE 21:01:56 24° ENE 21:06:10 10° NNE visible
28 Apr 4.1 22:40:33 34° SW 22:41:55 40° W 22:46:57 10° NNW visible
29 Apr 4.8 20:40:17 10° E 20:43:35 17° ENE 20:46:53 10° NNE visible
29 Apr 3.5 22:21:39 42° SSW 22:23:17 61° W 22:28:36 10° NNW visible
30 Apr 5.1 20:23:43 10° ENE 20:25:16 11° ENE 20:26:49 10° NE visible
30 Apr 3.0 22:02:46 42° SSE 22:04:42 90° W 22:10:05 10° NNW visible
01 May 3.2 21:43:53 33° SE 21:46:09 61° ENE 21:51:27 10° N visible
01 May 5.4 23:25:23 14° WSW 23:26:47 15° W 23:29:47 10° WNW visible
